Погода в Чкалово

Украина / Херсонская область     47°03′56″N   33°12′26″E
темп.,
°C
ветер,
м/с
пор.,
м/с
влажн.,
%
обл.,
%
осадки,
мм/ч
давл.,
гПа
погр.,
м
13 апреля, вт
вт1300:00+9ю2482100 0.0 1021159
03:00+9ююв2485100 0.0 1021150
06:00+8ю2386100 0.0 1021105
09:00+10ююв3478100 0.0 1021395
12:00+13ююв346897 0.0 10211102
15:00+13юз3466100 0.2 1020914
18:00+12юз237094 0.1 1020116
21:00+11ю347488 0.1 102086
14 апреля, ср
ср1400:00+7ююз348991 0.0 101976
03:00+7ююв2289100 0.0 101830
06:00+7ююв229176 0.0 101821
09:00+11юв337825 0.0 1017492
12:00+14вюв445825 0.0 10161182
15:00+16юв344698 0.1 10142019
18:00+15ююв5755100 0.0 1013530
21:00+10юв4870100 0.0 1014295
15 апреля, чт
чт1500:00+9юв2384100 0.4 1013124
03:00+9ююв3690100 0.6 1013415
06:00+9юв3595100 0.9 1012272
09:00+9юв6119388 6.3 1012643
12:00+10ююз6879100 1.0 1012921
15:00+9ююз7984100 1.2 1013856
18:00+9юз6108099 0.0 1013774
21:00
16 апреля, пт
пт1600:00+6ююз5984100 0.0 1013698
03:00+6юз71287100 0.1 10131081
06:00+6ююз61286100 0.0 1013756
09:00+7юз7107644 0.0 1013793
12:00+10юз9116295 0.0 10141411
15:00+10юз7960100 0.1 10151687
18:00+9зюз576499 0.1 10151157
21:00+6ююз387489 0.2 1017176
17 апреля, сб
сб1700:00+6ююз5984100 0.0 1016422
03:00+7юз4784100 0.0 1017538
06:00+6юз368696 0.0 1017383
09:00+8юз467485 0.0 1018555
12:00+11зюз566598 0.0 10191207
15:00+11з456589 0.1 10201074
18:00+11сз336441 0.0 1020762
21:00+8ссв348070 0.0 102097